Weather History for Carbondale, IL

Change the Weather History Date:

Tuesday, February 4, 2014

  Actual Average Record
Temperature  
Mean Temperature 28 °F -  
Max Temperature 30 °F 43 °F 73 °F (1962)
Min Temperature 25 °F 19 °F -7 °F (1912)
Degree Days  
Heating Degree Days 38    
Moisture  
Dew Point 24 °F    
Average Humidity 84    
Maximum Humidity 93    
Minimum Humidity 72    
Precipitation  
Precipitation 0.00 in - - ()
Sea Level Pressure  
Sea Level Pressure 30.05 in    
Wind  
Wind Speed 9 mph (NE)    
Max Wind Speed 18 mph    
Max Gust Speed 28 mph    
Visibility 3 miles    
Events Rain , Snow    
Averages and records for this station are not official NWS values.
T = Trace of Precipitation, MM = Missing Value Source: NWS Daily Summary

Daily Weather History Graph

Daily Weather History Graph

Search for Another Location

Airport:

Trip Planner

Search our weather history database for the weather conditions in past years. The results will help you decide how hot, cold, wet, or windy it might be!

Date:

Astronomy

Feb. 04, 2014 Rise Set
Actual Time 6:58 AM CST 5:24 PM CST
Civil Twilight 6:30 AM CST 5:51 PM CST
Nautical Twilight 5:59 AM CST 6:22 PM CST
Astronomical Twilight 5:28 AM CST 6:53 PM CST
Moon 9:42 AM CST (2/4) 11:10 PM CST (2/4)
Length of Visible Light 11h 20m
Length of Day
10h 25m
Waxing Crescent, 29% of the Moon is Illuminated
Feb 4
Waxing Crescent
Feb 6
First Quarter
Feb 14
Full
Feb 22
Last Quarter
Mar 1
New

Hourly Weather History & Observations

Time (CST) Temp. Windchill Dew Point Humidity Pressure Visibility Wind Dir Wind Speed Gust Speed Precip Events Conditions
12:52 AM 25.0 °F 19.3 °F 19.0 °F 78% 30.33 in 9.0 mi NNE 4.6 mph - N/A   Clear
1:52 AM 25.0 °F 18.1 °F 19.0 °F 78% 30.29 in 9.0 mi NE 5.8 mph - N/A   Clear
2:52 AM 25.0 °F 19.3 °F 19.0 °F 78% 30.28 in 9.0 mi NNE 4.6 mph - N/A   Clear
3:52 AM 25.0 °F 19.3 °F 19.0 °F 78% 30.29 in 8.0 mi NE 4.6 mph - N/A   Clear
4:52 AM 25.0 °F 18.1 °F 19.0 °F 78% 30.29 in 8.0 mi North 5.8 mph - N/A   Clear
5:52 AM 25.0 °F 17.1 °F 19.9 °F 81% 30.27 in 6.0 mi NE 6.9 mph - N/A   Haze
6:52 AM 26.1 °F 16.8 °F 21.0 °F 81% 30.26 in 6.0 mi NE 9.2 mph - N/A   Haze
7:52 AM 27.0 °F 19.5 °F 21.0 °F 78% 30.27 in 5.0 mi NE 6.9 mph - N/A   Haze
8:52 AM 28.0 °F 18.1 °F 23.0 °F 81% 30.23 in 4.0 mi NE 11.5 mph - N/A   Haze
9:52 AM 30.0 °F 22.4 °F 23.0 °F 75% 30.27 in 5.0 mi NE 8.1 mph - N/A   Haze
10:52 AM 30.9 °F 23.5 °F 23.0 °F 72% 30.24 in 5.0 mi NNE 8.1 mph - N/A   Haze
11:43 AM 30.9 °F 23.5 °F 24.1 °F 76% 30.20 in 1.2 mi NNE 8.1 mph - 0.00 in Snow Light Snow
11:52 AM 30.0 °F 21.1 °F 25.0 °F 82% 30.21 in 0.8 mi ENE 10.4 mph - 0.00 in Snow Light Snow
12:01 PM 30.0 °F 21.7 °F 25.0 °F 82% 30.18 in 1.8 mi ENE 9.2 mph - 0.00 in Snow Light Snow
12:06 PM 30.0 °F 21.1 °F 25.0 °F 82% 30.17 in 3.0 mi ENE 10.4 mph - 0.00 in Snow Light Snow
12:33 PM 30.0 °F 19.1 °F 25.0 °F 82% 30.11 in 2.0 mi ENE 15.0 mph - 0.00 in Snow Light Snow
12:41 PM 30.0 °F 19.5 °F 25.0 °F 82% 30.08 in 0.8 mi ENE 13.8 mph - 0.00 in Snow Light Snow
12:49 PM 28.4 °F 17.0 °F 24.8 °F 86% 30.07 in 0.2 mi NE 15.0 mph - 0.00 in Rain , Snow Light Freezing Rain
12:52 PM 28.9 °F 16.5 °F 26.1 °F 89% 30.08 in 0.2 mi NE 18.4 mph - 0.00 in Rain , Snow Light Freezing Rain
12:59 PM 28.9 °F 17.3 °F 26.1 °F 89% 30.05 in 0.2 mi NE 16.1 mph - 0.00 in Rain , Snow Light Freezing Rain
1:04 PM 28.9 °F 17.3 °F 26.1 °F 89% 30.04 in 0.5 mi ENE 16.1 mph - 0.00 in Rain , Snow Light Freezing Rain
1:10 PM 28.9 °F 17.3 °F 26.1 °F 89% 30.03 in 0.5 mi ENE 16.1 mph 24.2 mph 0.00 in Snow Snow
1:22 PM 30.0 °F 19.1 °F 26.1 °F 85% 30.01 in 0.8 mi NE 15.0 mph 23.0 mph 0.00 in Snow Light Snow
1:31 PM 30.0 °F 20.5 °F 26.1 °F 85% 30.02 in 1.0 mi NE 11.5 mph - 0.00 in Snow Light Snow
1:52 PM 30.0 °F 21.1 °F 26.1 °F 85% 30.03 in 1.8 mi ENE 10.4 mph - 0.00 in Snow Light Snow
2:13 PM 30.0 °F 21.1 °F 26.1 °F 85% 30.02 in 1.8 mi NE 10.4 mph - 0.00 in Snow Light Snow
2:52 PM 28.9 °F 18.2 °F 26.1 °F 89% 30.02 in 1.2 mi NE 13.8 mph - 0.00 in Snow Light Snow
3:02 PM 30.0 °F 20.0 °F 26.1 °F 85% 30.00 in 1.5 mi ENE 12.7 mph - 0.00 in Snow Light Snow
3:28 PM 30.0 °F 19.1 °F 26.1 °F 85% 29.97 in 2.0 mi NE 15.0 mph - 0.00 in   Overcast
3:40 PM 30.0 °F 21.1 °F 25.0 °F 82% 29.98 in 2.5 mi NE 10.4 mph - 0.00 in Rain Light Freezing Rain
3:52 PM 30.0 °F 22.4 °F 26.1 °F 85% 30.02 in 2.5 mi NNE 8.1 mph 21.9 mph 0.00 in Rain Light Freezing Rain
4:05 PM 30.0 °F 21.1 °F 25.0 °F 82% 29.98 in 2.0 mi NE 10.4 mph - 0.00 in Rain Light Freezing Rain
4:21 PM 30.0 °F 20.0 °F 25.0 °F 82% 29.98 in 2.0 mi NE 12.7 mph - N/A Rain Light Freezing Rain
4:25 PM 28.9 °F 19.2 °F 26.1 °F 89% 29.98 in 2.5 mi NE 11.5 mph - N/A Rain Light Freezing Rain
4:36 PM 28.9 °F 19.8 °F 25.0 °F 85% 29.96 in 2.5 mi NE 10.4 mph - N/A   Overcast
4:52 PM 28.9 °F 18.6 °F 25.0 °F 85% 29.98 in 1.8 mi NE 12.7 mph - N/A   Overcast
5:10 PM 28.9 °F 18.6 °F 25.0 °F 85% 29.94 in 1.5 mi NE 12.7 mph - N/A Rain Light Freezing Rain
5:24 PM 28.9 °F 16.9 °F 25.0 °F 85% 29.92 in 2.0 mi ENE 17.3 mph 23.0 mph N/A Rain Light Freezing Rain
5:33 PM 28.9 °F 17.3 °F 25.0 °F 85% 29.93 in 3.0 mi NE 16.1 mph 21.9 mph N/A Rain Light Freezing Rain
5:52 PM 28.9 °F 16.5 °F 25.0 °F 85% 29.90 in 4.0 mi ENE 18.4 mph 27.6 mph N/A Rain Light Freezing Rain
6:17 PM 28.9 °F 19.2 °F 25.0 °F 85% 29.91 in 4.0 mi East 11.5 mph - N/A Rain Light Freezing Rain
6:52 PM 30.0 °F 21.7 °F 25.0 °F 82% 29.97 in 6.0 mi NE 9.2 mph - N/A Rain Light Freezing Rain
7:02 PM 28.9 °F 21.1 °F 25.0 °F 85% 29.94 in 5.0 mi NE 8.1 mph - N/A   Overcast
7:42 PM 28.9 °F 19.8 °F 25.0 °F 85% 29.91 in 5.0 mi NE 10.4 mph - N/A   Overcast
7:52 PM 28.9 °F 19.8 °F 25.0 °F 85% 29.91 in 5.0 mi NE 10.4 mph - N/A   Overcast
8:24 PM 28.9 °F 21.1 °F 26.1 °F 89% 29.90 in 2.5 mi NNE 8.1 mph - N/A   Overcast
8:52 PM 28.9 °F 22.8 °F 26.1 °F 89% 29.92 in 2.5 mi NNE 5.8 mph - N/A   Overcast
9:29 PM 28.9 °F 22.8 °F 26.1 °F 89% 29.91 in 2.0 mi North 5.8 mph - N/A Rain Light Freezing Rain
9:38 PM 28.9 °F 22.8 °F 26.1 °F 89% 29.89 in 1.8 mi NNE 5.8 mph - N/A Rain Light Freezing Rain
9:48 PM 28.4 °F 22.2 °F 26.6 °F 93% 29.89 in 2.0 mi North 5.8 mph - N/A   Overcast
9:49 PM 28.9 °F 22.8 °F 26.1 °F 89% 29.90 in 2.0 mi North 5.8 mph - N/A   Overcast
10:52 PM 28.9 °F 20.4 °F 27.0 °F 92% 29.93 in 2.0 mi NW 9.2 mph - N/A   Overcast
11:52 PM 28.0 °F 18.1 °F 25.0 °F 88% 29.89 in 2.5 mi NNW 11.5 mph - N/A   Overcast